Time,TemperatureF,DewpointF,PressureIn,WindDirection,WindDirectionDegrees,WindSpeedMPH,WindSpeedGustMPH,Humidity,HourlyPrecipIn,Conditions,Clouds,dailyrainin,SoftwareType,DateUTC
2013-10-08 00:02:00,44.3,41.0,30.28,NW,321,0.0,3.0,89,0.00,,,0.25,weatherlink.com 1.10,2013-10-08 04:02:00,
2013-10-08 00:17:00,44.6,42.0,30.28,NW,325,0.0,6.0,89,0.00,,,0.25,weatherlink.com 1.10,2013-10-08 04:17:00,
2013-10-08 00:32:00,44.4,41.0,30.29,NW,310,0.0,2.0,89,0.00,,,0.25,weatherlink.com 1.10,2013-10-08 04:32:00,
2013-10-08 00:47:00,44.0,41.0,30.28,NNE,24,0.0,2.0,89,0.00,,,0.25,weatherlink.com 1.10,2013-10-08 04:47:00,
2013-10-08 01:02:00,43.8,41.0,30.28,NW,315,0.0,3.0,89,0.00,,,0.25,weatherlink.com 1.10,2013-10-08 05:02:00,
2013-10-08 01:17:00,43.7,41.0,30.28,NW,321,0.0,3.0,89,0.00,,,0.25,weatherlink.com 1.10,2013-10-08 05:17:00,
2013-10-08 01:32:00,43.5,41.0,30.28,NNW,329,0.0,3.0,90,0.00,,,0.25,weatherlink.com 1.10,2013-10-08 05:32:00,
2013-10-08 01:47:00,43.4,40.0,30.28,West,271,0.0,3.0,89,0.00,,,0.25,weatherlink.com 1.10,2013-10-08 05:47:00,
2013-10-08 02:03:00,43.1,40.0,30.28,North,349,0.0,1.0,89,0.00,,,0.25,weatherlink.com 1.10,2013-10-08 06:03:00,
2013-10-08 02:18:00,43.0,40.0,30.28,WNW,292,0.0,2.0,89,0.00,,,0.25,weatherlink.com 1.10,2013-10-08 06:18:00,
2013-10-08 02:33:00,42.4,40.0,30.28,NW,325,0.0,4.0,91,0.00,,,0.25,weatherlink.com 1.10,2013-10-08 06:33:00,
2013-10-08 02:48:00,42.9,40.0,30.29,NW,311,0.0,5.0,90,0.00,,,0.25,weatherlink.com 1.10,2013-10-08 06:48:00,
2013-10-08 03:03:00,42.8,40.0,30.28,North,350,0.0,5.0,90,0.00,,,0.25,weatherlink.com 1.10,2013-10-08 07:03:00,
2013-10-08 03:18:00,42.2,40.0,30.28,NW,325,0.0,2.0,90,0.00,,,0.25,weatherlink.com 1.10,2013-10-08 07:18:00,
2013-10-08 03:33:00,41.4,39.0,30.28,NW,325,0.0,0.0,91,0.00,,,0.25,weatherlink.com 1.10,2013-10-08 07:33:00,
2013-10-08 03:48:00,41.1,39.0,30.29,SE,124,0.0,1.0,92,0.00,,,0.25,weatherlink.com 1.10,2013-10-08 07:48:00,
2013-10-08 04:03:00,40.6,39.0,30.30,SE,124,0.0,1.0,92,0.00,,,0.25,weatherlink.com 1.10,2013-10-08 08:03:00,
2013-10-08 04:18:00,40.3,38.0,30.30,SE,124,0.0,0.0,92,0.00,,,0.25,weatherlink.com 1.10,2013-10-08 08:18:00,
2013-10-08 04:33:00,40.4,38.0,30.31,SE,124,0.0,0.0,92,0.00,,,0.25,weatherlink.com 1.10,2013-10-08 08:33:00,
2013-10-08 04:48:00,40.1,38.0,30.31,SE,124,0.0,0.0,92,0.00,,,0.25,weatherlink.com 1.10,2013-10-08 08:48:00,
2013-10-08 05:03:00,40.2,38.0,30.32,SE,124,0.0,1.0,93,0.00,,,0.25,weatherlink.com 1.10,2013-10-08 09:03:00,
2013-10-08 05:18:00,40.8,39.0,30.33,SW,223,0.0,2.0,92,0.00,,,0.25,weatherlink.com 1.10,2013-10-08 09:18:00,
2013-10-08 05:33:00,41.0,39.0,30.34,SW,236,0.0,1.0,91,0.00,,,0.00,weatherlink.com 1.10,2013-10-08 09:33:00,
2013-10-08 05:48:00,41.3,39.0,30.34,NNW,328,0.0,4.0,91,0.00,,,0.00,weatherlink.com 1.10,2013-10-08 09:48:00,
2013-10-08 06:03:00,41.4,39.0,30.35,ENE,59,0.0,4.0,90,0.00,,,0.00,weatherlink.com 1.10,2013-10-08 10:03:00,
2013-10-08 06:18:00,41.5,39.0,30.35,NW,319,1.0,4.0,89,0.00,,,0.00,weatherlink.com 1.10,2013-10-08 10:18:00,
2013-10-08 06:33:00,41.5,39.0,30.37,East,87,0.0,0.0,89,0.00,,,0.00,weatherlink.com 1.10,2013-10-08 10:33:00,
2013-10-08 06:48:00,41.1,38.0,30.38,ENE,76,0.0,0.0,89,0.00,,,0.00,weatherlink.com 1.10,2013-10-08 10:48:00,
2013-10-08 07:03:00,40.8,38.0,30.38,NW,317,0.0,2.0,89,0.00,,,0.00,weatherlink.com 1.10,2013-10-08 11:03:00,
2013-10-08 07:18:00,40.5,38.0,30.38,SE,143,0.0,2.0,90,0.00,,,0.00,weatherlink.com 1.10,2013-10-08 11:18:00,
2013-10-08 07:33:00,40.2,38.0,30.39,SE,143,0.0,0.0,90,0.00,,,0.00,weatherlink.com 1.10,2013-10-08 11:33:00,
2013-10-08 07:48:00,39.8,37.0,30.39,SE,143,0.0,0.0,91,0.00,,,0.00,weatherlink.com 1.10,2013-10-08 11:48:00,
2013-10-08 08:03:00,40.0,38.0,30.39,SE,143,0.0,0.0,92,0.00,,,0.00,weatherlink.com 1.10,2013-10-08 12:03:00,
2013-10-08 08:18:00,40.3,39.0,30.39,SE,143,0.0,0.0,93,0.00,,,0.00,weatherlink.com 1.10,2013-10-08 12:18:00,
2013-10-08 08:33:00,41.3,39.0,30.40,SSE,147,0.0,1.0,92,0.00,,,0.00,weatherlink.com 1.10,2013-10-08 12:33:00,
2013-10-08 08:48:00,42.2,40.0,30.41,SW,221,0.0,2.0,90,0.00,,,0.00,weatherlink.com 1.10,2013-10-08 12:48:00,
2013-10-08 09:04:00,43.2,40.0,30.41,NW,313,0.0,3.0,87,0.00,,,0.00,weatherlink.com 1.10,2013-10-08 13:04:00,
2013-10-08 09:19:00,44.6,40.0,30.42,SSE,161,0.0,5.0,85,0.00,,,0.00,weatherlink.com 1.10,2013-10-08 13:19:00,
2013-10-08 09:34:00,46.2,41.0,30.42,NNW,340,5.0,10.0,81,0.00,,,0.00,weatherlink.com 1.10,2013-10-08 13:34:00,
2013-10-08 09:49:00,47.3,41.0,30.42,NW,321,3.0,8.0,78,0.00,,,0.00,weatherlink.com 1.10,2013-10-08 13:49:00,
2013-10-08 10:04:00,47.6,41.0,30.42,WNW,294,0.0,8.0,78,0.00,,,0.00,weatherlink.com 1.10,2013-10-08 14:04:00,
2013-10-08 10:19:00,49.2,42.0,30.42,SE,136,4.0,10.0,75,0.00,,,0.00,weatherlink.com 1.10,2013-10-08 14:19:00,
2013-10-08 10:34:00,49.6,42.0,30.42,SE,126,4.0,9.0,74,0.00,,,0.00,weatherlink.com 1.10,2013-10-08 14:34:00,
2013-10-08 10:49:00,50.2,41.0,30.43,East,93,5.0,18.0,72,0.00,,,0.00,weatherlink.com 1.10,2013-10-08 14:49:00,
2013-10-08 11:04:00,50.5,42.0,30.43,ESE,119,10.0,15.0,72,0.00,,,0.00,weatherlink.com 1.10,2013-10-08 15:04:00,
2013-10-08 11:19:00,51.0,41.0,30.43,NNE,33,0.0,12.0,69,0.00,,,0.00,weatherlink.com 1.10,2013-10-08 15:19:00,
2013-10-08 11:34:00,52.8,42.0,30.43,NW,321,5.0,6.0,68,0.00,,,0.00,weatherlink.com 1.10,2013-10-08 15:34:00,
2013-10-08 11:49:00,52.8,42.0,30.44,North,11,1.0,10.0,66,0.00,,,0.00,weatherlink.com 1.10,2013-10-08 15:49:00,
2013-10-08 12:04:00,52.8,42.0,30.43,ESE,115,7.0,16.0,68,0.00,,,0.00,weatherlink.com 1.10,2013-10-08 16:04:00,
2013-10-08 12:19:00,53.9,42.0,30.44,East,96,3.0,17.0,64,0.00,,,0.00,weatherlink.com 1.10,2013-10-08 16:19:00,
2013-10-08 12:34:00,55.4,43.0,30.43,SSW,196,1.0,14.0,64,0.00,,,0.00,weatherlink.com 1.10,2013-10-08 16:34:00,
2013-10-08 12:49:00,55.3,43.0,30.43,SE,129,7.0,12.0,63,0.00,,,0.00,weatherlink.com 1.10,2013-10-08 16:49:00,
2013-10-08 13:04:00,56.4,43.0,30.43,SW,234,6.0,10.0,62,0.00,,,0.00,weatherlink.com 1.10,2013-10-08 17:04:00,
2013-10-08 13:19:00,55.8,42.0,30.43,SE,137,8.0,12.0,61,0.00,,,0.00,weatherlink.com 1.10,2013-10-08 17:19:00,
2013-10-08 13:34:00,56.5,43.0,30.42,SSE,150,0.0,9.0,60,0.00,,,0.00,weatherlink.com 1.10,2013-10-08 17:34:00,
2013-10-08 13:49:00,57.4,43.0,30.42,SW,232,0.0,7.0,58,0.00,,,0.00,weatherlink.com 1.10,2013-10-08 17:49:00,
2013-10-08 14:04:00,57.6,44.0,30.41,NNE,18,0.0,8.0,60,0.00,,,0.00,weatherlink.com 1.10,2013-10-08 18:04:00,
2013-10-08 14:19:00,56.9,43.0,30.41,SSW,203,2.0,13.0,61,0.00,,,0.00,weatherlink.com 1.10,2013-10-08 18:19:00,
2013-10-08 14:34:00,56.7,43.0,30.41,SSE,159,1.0,8.0,61,0.00,,,0.00,weatherlink.com 1.10,2013-10-08 18:34:00,
2013-10-08 14:49:00,56.5,43.0,30.41,SE,133,5.0,12.0,62,0.00,,,0.00,weatherlink.com 1.10,2013-10-08 18:49:00,
2013-10-08 15:04:00,57.2,43.0,30.41,SSE,160,1.0,8.0,60,0.00,,,0.00,weatherlink.com 1.10,2013-10-08 19:04:00,
2013-10-08 15:19:00,57.3,43.0,30.41,ESE,103,0.0,8.0,60,0.00,,,0.00,weatherlink.com 1.10,2013-10-08 19:19:00,
2013-10-08 15:34:00,58.1,43.0,30.41,East,85,0.0,5.0,58,0.00,,,0.00,weatherlink.com 1.10,2013-10-08 19:34:00,
2013-10-08 15:49:00,57.4,43.0,30.41,NW,315,0.0,6.0,60,0.00,,,0.00,weatherlink.com 1.10,2013-10-08 19:49:00,
2013-10-08 16:04:00,57.3,43.0,30.41,WNW,303,0.0,7.0,60,0.00,,,0.00,weatherlink.com 1.10,2013-10-08 20:04:00,
2013-10-08 16:19:00,58.0,44.0,30.41,South,171,2.0,9.0,60,0.00,,,0.00,weatherlink.com 1.10,2013-10-08 20:19:00,
2013-10-08 16:34:00,58.3,44.0,30.40,WNW,286,0.0,8.0,60,0.00,,,0.00,weatherlink.com 1.10,2013-10-08 20:34:00,
2013-10-08 16:49:00,58.2,45.0,30.40,NW,314,1.0,4.0,61,0.00,,,0.00,weatherlink.com 1.10,2013-10-08 20:49:00,
2013-10-08 17:04:00,57.9,44.0,30.40,WNW,302,1.0,5.0,61,0.00,,,0.00,weatherlink.com 1.10,2013-10-08 21:04:00,
2013-10-08 17:19:00,58.1,45.0,30.40,WNW,301,2.0,4.0,62,0.00,,,0.00,weatherlink.com 1.10,2013-10-08 21:19:00,
2013-10-08 17:34:00,58.5,44.0,30.40,South,169,1.0,2.0,59,0.00,,,0.00,weatherlink.com 1.10,2013-10-08 21:34:00,
2013-10-08 17:49:00,57.9,44.0,30.40,WNW,299,0.0,2.0,61,0.00,,,0.00,weatherlink.com 1.10,2013-10-08 21:49:00,
2013-10-08 18:04:00,56.1,45.0,30.40,WNW,299,0.0,0.0,67,0.00,,,0.00,weatherlink.com 1.10,2013-10-08 22:04:00,
2013-10-08 18:19:00,54.6,45.0,30.41,WNW,299,0.0,0.0,70,0.00,,,0.00,weatherlink.com 1.10,2013-10-08 22:19:00,
2013-10-08 18:34:00,52.8,45.0,30.41,WNW,299,0.0,0.0,74,0.00,,,0.00,weatherlink.com 1.10,2013-10-08 22:34:00,
2013-10-08 18:49:00,50.8,45.0,30.41,WNW,299,0.0,0.0,79,0.00,,,0.00,weatherlink.com 1.10,2013-10-08 22:49:00,
2013-10-08 19:04:00,49.0,44.0,30.41,WNW,299,0.0,0.0,82,0.00,,,0.00,weatherlink.com 1.10,2013-10-08 23:04:00,
2013-10-08 19:19:00,47.9,44.0,30.41,WNW,299,0.0,0.0,85,0.00,,,0.00,weatherlink.com 1.10,2013-10-08 23:19:00,
2013-10-08 19:35:00,46.8,43.0,30.41,WNW,299,0.0,0.0,86,0.00,,,0.00,weatherlink.com 1.10,2013-10-08 23:35:00,
2013-10-08 19:50:00,45.9,43.0,30.41,WNW,299,0.0,0.0,88,0.00,,,0.00,weatherlink.com 1.10,2013-10-08 23:50:00,
2013-10-08 20:05:00,45.1,42.0,30.41,WNW,299,0.0,0.0,90,0.00,,,0.00,weatherlink.com 1.10,2013-10-09 00:05:00,
2013-10-08 20:20:00,44.8,42.0,30.42,WNW,299,0.0,0.0,91,0.00,,,0.00,weatherlink.com 1.10,2013-10-09 00:20:00,
2013-10-08 20:35:00,44.5,42.0,30.42,WNW,299,0.0,0.0,92,0.00,,,0.00,weatherlink.com 1.10,2013-10-09 00:35:00,
2013-10-08 20:50:00,44.7,43.0,30.43,WNW,299,0.0,0.0,92,0.00,,,0.00,weatherlink.com 1.10,2013-10-09 00:50:00,
2013-10-08 21:05:00,45.1,43.0,30.43,WNW,299,0.0,0.0,92,0.00,,,0.00,weatherlink.com 1.10,2013-10-09 01:05:00,
2013-10-08 21:20:00,46.1,43.0,30.44,SSE,163,0.0,1.0,89,0.00,,,0.00,weatherlink.com 1.10,2013-10-09 01:20:00,
2013-10-08 21:35:00,47.8,43.0,30.44,SE,133,0.0,2.0,84,0.00,,,0.00,weatherlink.com 1.10,2013-10-09 01:35:00,
2013-10-08 21:50:00,49.1,43.0,30.44,SSE,159,0.0,7.0,80,0.00,,,0.00,weatherlink.com 1.10,2013-10-09 01:50:00,
2013-10-08 22:05:00,49.9,43.0,30.43,ESE,109,0.0,5.0,78,0.00,,,0.00,weatherlink.com 1.10,2013-10-09 02:05:00,
2013-10-08 22:20:00,50.0,43.0,30.43,ESE,117,1.0,8.0,77,0.00,,,0.00,weatherlink.com 1.10,2013-10-09 02:20:00,
2013-10-08 22:35:00,50.0,43.0,30.44,SE,142,5.0,10.0,77,0.00,,,0.00,weatherlink.com 1.10,2013-10-09 02:35:00,
2013-10-08 22:50:00,50.0,43.0,30.44,ESE,118,5.0,11.0,76,0.00,,,0.00,weatherlink.com 1.10,2013-10-09 02:50:00,
2013-10-08 23:05:00,49.6,43.0,30.44,ESE,119,8.0,9.0,77,0.00,,,0.00,weatherlink.com 1.10,2013-10-09 03:05:00,
2013-10-08 23:20:00,49.0,43.0,30.44,SSE,152,2.0,10.0,79,0.00,,,0.00,weatherlink.com 1.10,2013-10-09 03:20:00,
2013-10-08 23:35:00,48.5,43.0,30.44,SSE,147,0.0,8.0,80,0.00,,,0.00,weatherlink.com 1.10,2013-10-09 03:35:00,
2013-10-08 23:50:00,47.6,42.0,30.44,SE,125,1.0,8.0,81,0.00,,,0.00,weatherlink.com 1.10,2013-10-09 03:50:00,